K7JKM Weather Reports


time (UTC)temp
C
wind
direction
speed
KPH
gust
KPH
rain 1hr
cm
rain 24hr
cm
rain mn
cm
humidity
%
barometer
mb
20260510113027 11 236 0.0 4.8 0.00 0.00 0.00 67 1017.9
20260510111527 11 323 0.0 4.8 0.00 0.00 0.00 66 1018.1
20260510110026 11 307 0.0 4.8 0.00 0.00 0.00 66 1018.1
20260510104526 11 309 0.0 4.8 0.00 0.00 0.00 66 1017.7
20260510103025 11 311 0.0 6.4 0.00 0.00 0.00 66 1017.6
20260510101523 11 316 0.0 8.0 0.00 0.00 0.00 66 1017.4
20260510100024 11 293 0.0 4.8 0.00 0.00 0.00 66 1017.0
20260510094519 11 293 0.0 3.2 0.00 0.00 0.00 66 1016.6
20260510093018 12 173 0.0 11.3 0.00 0.00 0.00 66 1016.5
20260510091519 12 321 1.6 12.9 0.00 0.00 0.00 66 1016.8
20260510090012 12 316 1.6 11.3 0.00 0.00 0.00 66 1016.8
20260510084520 12 283 1.6 6.4 0.00 0.00 0.00 66 1016.8
20260510083027 12 352 0.0 1.6 0.00 0.00 0.00 66 1016.4
20260510081532 12 309 0.0 4.8 0.00 0.00 0.00 66 1016.4
20260510080023 12 311 0.0 3.2 0.00 0.00 0.00 66 1016.6
20260510074522 12 316 0.0 4.8 0.00 0.00 0.00 66 1016.5
20260510073022 13 315 0.0 6.4 0.00 0.00 0.00 65 1016.6
20260510071513 13 300 0.0 8.0 0.00 0.00 0.00 65 1016.5
20260510070035 13 34 0.0 9.7 0.00 0.00 0.00 64 1016.5
20260510064527 14 310 0.0 6.4 0.00 0.00 0.00 62 1016.4
20260510063028 15 233 0.0 8.0 0.00 0.00 0.00 61 1016.3
20260510061527 15 315 0.0 8.0 0.00 0.00 0.00 59 1016.2
20260510060036 15 255 0.0 3.2 0.00 0.00 0.00 58 1016.2
20260510054523 16 136 0.0 3.2 0.00 0.00 0.00 57 1016.0
20260510053021 16 212 0.0 0.0 0.00 0.00 0.00 56 1015.9
20260510051528 16 309 0.0 0.0 0.00 0.00 0.00 55 1016.0
20260510050029 17 311 0.0 3.2 0.00 0.00 0.00 54 1015.9
20260510044528 17 15 0.0 9.7 0.00 0.00 0.00 53 1015.9
20260510043028 17 341 0.0 6.4 0.00 0.00 0.00 53 1015.7
20260510041533 17 275 1.6 9.7 0.00 0.00 0.00 52 1015.5
20260510040026 18 310 0.0 4.8 0.00 0.00 0.00 52 1015.3
20260510034504 18 153 0.0 4.8 0.00 0.00 0.00 50 1015.1
20260510033003 20 307 1.6 8.0 0.00 0.00 0.00 48 1015.1
20260510031518 20 177 0.0 9.7 0.00 0.00 0.00 45 1015.0
20260510030013 22 321 1.6 6.4 0.00 0.00 0.00 39 1014.9
20260510024511 23 285 0.0 1.6 0.00 0.00 0.00 30 1014.6
20260510023008 25 143 0.0 0.0 0.00 0.00 0.00 29 1014.7
20260510021505 25 143 0.0 0.0 0.00 0.00 0.00 27 1014.8
20260510020004 25 143 0.0 0.0 0.00 0.00 0.00 28 1014.7
20260510014503 25 143 0.0 0.0 0.00 0.00 0.00 29 1014.9
20260510013023 25 140 0.0 0.0 0.00 0.00 0.00 28 1015.0
20260510011519 25 140 0.0 0.0 0.00 0.00 0.00 29 1015.1
20260510010014 26 127 0.0 1.6 0.00 0.00 0.00 29 1015.2
20260510004509 26 127 0.0 0.0 0.00 0.00 0.00 28 1015.3
20260510003010 26 118 0.0 1.6 0.00 0.00 0.00 28 1015.4
20260510001506 26 65 0.0 1.6 0.00 0.00 0.00 26 1015.5
20260510000004 27 86 0.0 1.6 0.00 0.00 0.00 27 1015.6
20260509234534 27 63 0.0 1.6 0.00 0.00 0.00 25 1015.8
20260509233022 26 212 0.0 3.2 0.00 0.00 0.00 26 1015.8
20260509231520 26 317 0.0 1.6 0.00 0.00 0.00 27 1016.1
20260509230016 26 141 0.0 1.6 0.00 0.00 0.00 30 1016.1
20260509224512 26 71 0.0 4.8 0.00 0.00 0.00 31 1016.3
20260509223015 25 50 0.0 8.0 0.00 0.00 0.00 32 1016.6
20260509221508 25 333 0.0 3.2 0.00 0.00 0.00 31 1016.8
20260509220025 25 283 0.0 4.8 0.00 0.00 0.00 35 1017.2
20260509214526 25 56 0.0 3.2 0.00 0.00 0.00 34 1017.4
20260509213024 24 301 0.0 3.2 0.00 0.00 0.00 36 1017.6
20260509211522 24 285 0.0 3.2 0.00 0.00 0.00 38 1017.8
20260509210022 23 32 1.6 8.0 0.00 0.00 0.00 37 1017.9
20260509204515 23 69 0.0 4.8 0.00 0.00 0.00 39 1018.0
20260509203030 22 193 0.0 3.2 0.00 0.00 0.00 42 1018.1
20260509201528 22 207 0.0 4.8 0.00 0.00 0.00 42 1018.3
20260509200026 22 301 0.0 4.8 0.00 0.00 0.00 43 1018.4
20260509194525 22 80 0.0 3.2 0.00 0.00 0.00 39 1018.6
20260509193025 21 317 0.0 6.4 0.00 0.00 0.00 43 1018.8
20260509191521 20 18 0.0 3.2 0.00 0.00 0.00 46 1018.9
20260509190020 20 31 0.0 6.4 0.00 0.00 0.00 47 1019.1
20260509184502 20 52 0.0 6.4 0.00 0.00 0.00 53 1019.4
20260509183012 20 57 0.0 6.4 0.00 0.00 0.00 54 1019.4
20260509181511 19 54 0.0 1.6 0.00 0.00 0.00 56 1019.6
20260509180007 18 352 0.0 1.6 0.00 0.00 0.00 57 1019.7
20260509174503 18 37 0.0 1.6 0.00 0.00 0.00 59 1019.7
20260509173004 17 262 0.0 1.6 0.00 0.00 0.00 62 1019.9
20260509171503 16 64 0.0 6.4 0.00 0.00 0.00 64 1020.0
20260509170004 15 311 0.0 1.6 0.00 0.00 0.00 67 1020.3
20260509164515 15 55 0.0 1.6 0.00 0.00 0.00 69 1020.5
20260509163015 13 58 0.0 1.6 0.00 0.00 0.00 70 1020.8
20260509161512 13 342 0.0 8.0 0.00 0.00 0.00 71 1021.0
20260509160010 13 338 0.0 3.2 0.00 0.00 0.00 72 1021.1
20260509154506 12 80 0.0 1.6 0.00 0.00 0.00 73 1021.1
20260509153005 12 276 0.0 0.0 0.00 0.00 0.00 75 1021.3
20260509151503 11 304 0.0 0.0 0.00 0.00 0.00 76 1021.6
20260509150026 10 124 0.0 0.0 0.00 0.00 0.00 79 1021.6
20260509144521 10 98 0.0 0.0 0.00 0.00 0.00 80 1021.7
20260509143020 9 102 0.0 0.0 0.00 0.00 0.00 81 1021.5
20260509141531 8 25 0.0 0.0 0.00 0.00 0.00 81 1021.6
20260509140013 7 269 0.0 0.0 0.00 0.00 0.00 80 1021.6
20260509134512 7 269 0.0 0.0 0.00 0.00 0.00 79 1021.5
20260509133005 6 269 0.0 0.0 0.00 0.00 0.00 79 1021.5
20260509131531 6 269 0.0 0.0 0.00 0.00 0.00 78 1021.4
20260509130026 6 269 0.0 0.0 0.00 0.00 0.00 77 1021.5
20260509124528 6 269 0.0 0.0 0.00 0.00 0.00 77 1021.6
20260509123021 7 269 0.0 0.0 0.00 0.00 0.00 77 1021.4
20260509121518 7 269 0.0 0.0 0.00 0.00 0.00 77 1021.6
20260509120013 7 269 0.0 0.0 0.00 0.00 0.00 77 1021.8
20260509114530 8 269 0.0 0.0 0.00 0.00 0.00 77 1021.8